owner,sensor,date,latitude,longitude,vertical_datum,sea_water_temperature,qcFlag 
SCCF RECON,ioos:station:SCCF:51:1,2011-03-01T00:00:00Z,26.5545,-82.1715,1.8,24.07,2 
SCCF RECON,ioos:station:SCCF:51:1,2011-03-01T01:00:00Z,26.5545,-82.1715,1.8,23.61,2 
SCCF RECON,ioos:station:SCCF:51:1,2011-03-01T02:00:00Z,26.5545,-82.1715,1.8,23.55,2 
SCCF RECON,ioos:station:SCCF:51:1,2011-03-01T03:00:00Z,26.5545,-82.1715,1.8,23.33,2 
SCCF RECON,ioos:station:SCCF:51:1,2011-03-01T04:00:00Z,26.5545,-82.1715,1.8,23.89,2 
SCCF RECON,ioos:station:SCCF:51:1,2011-03-01T05:00:00Z,26.5545,-82.1715,1.8,23.94,2 
SCCF RECON,ioos:station:SCCF:51:1,2011-03-01T06:00:00Z,26.5545,-82.1715,1.8,23.9,2 
SCCF RECON,ioos:station:SCCF:51:1,2011-03-01T07:00:00Z,26.5545,-82.1715,1.8,23.92,2 
SCCF RECON,ioos:station:SCCF:51:1,2011-03-01T08:00:00Z,26.5545,-82.1715,1.8,23.89,2 
SCCF RECON,ioos:station:SCCF:51:1,2011-03-01T09:00:00Z,26.5545,-82.1715,1.8,23.61,2 
SCCF RECON,ioos:station:SCCF:51:1,2011-03-01T10:00:00Z,26.5545,-82.1715,1.8,23.52,2 
SCCF RECON,ioos:station:SCCF:51:1,2011-03-01T11:00:00Z,26.5545,-82.1715,1.8,23.51,2 
SCCF RECON,ioos:station:SCCF:51:1,2011-03-01T12:00:00Z,26.5545,-82.1715,1.8,23.71,2 
SCCF RECON,ioos:station:SCCF:51:1,2011-03-01T13:00:00Z,26.5545,-82.1715,1.8,23.71,2 
SCCF RECON,ioos:station:SCCF:51:1,2011-03-01T14:00:00Z,26.5545,-82.1715,1.8,23.56,2 
SCCF RECON,ioos:station:SCCF:51:1,2011-03-01T15:00:00Z,26.5545,-82.1715,1.8,23.15,2 
SCCF RECON,ioos:station:SCCF:51:1,2011-03-01T16:00:00Z,26.5545,-82.1715,1.8,23.1,2 
SCCF RECON,ioos:station:SCCF:51:1,2011-03-01T17:00:00Z,26.5545,-82.1715,1.8,22.98,2 
SCCF RECON,ioos:station:SCCF:51:1,2011-03-01T18:00:00Z,26.5545,-82.1715,1.8,23.37,2 
SCCF RECON,ioos:station:SCCF:51:1,2011-03-01T19:00:00Z,26.5545,-82.1715,1.8,23.85,2 
SCCF RECON,ioos:station:SCCF:51:1,2011-03-01T20:00:00Z,26.5545,-82.1715,1.8,24.04,2 
SCCF RECON,ioos:station:SCCF:51:1,2011-03-01T21:00:00Z,26.5545,-82.1715,1.8,24.14,2 
SCCF RECON,ioos:station:SCCF:51:1,2011-03-01T22:00:00Z,26.5545,-82.1715,1.8,24.11,2 
SCCF RECON,ioos:station:SCCF:51:1,2011-03-01T23:00:00Z,26.5545,-82.1715,1.8,24.01,2 
SCCF RECON,ioos:station:SCCF:51:1,2011-03-02T00:00:00Z,26.5545,-82.1715,1.8,23.45,2 
SCCF RECON,ioos:station:SCCF:51:1,2011-03-02T01:00:00Z,26.5545,-82.1715,1.8,23.32,2 
SCCF RECON,ioos:station:SCCF:51:1,2011-03-02T02:00:00Z,26.5545,-82.1715,1.8,23.23,2 
SCCF RECON,ioos:station:SCCF:51:1,2011-03-02T03:00:00Z,26.5545,-82.1715,1.8,22.91,2 
SCCF RECON,ioos:station:SCCF:51:1,2011-03-02T04:00:00Z,26.5545,-82.1715,1.8,22.82,2 
SCCF RECON,ioos:station:SCCF:51:1,2011-03-02T05:00:00Z,26.5545,-82.1715,1.8,22.89,2 
SCCF RECON,ioos:station:SCCF:51:1,2011-03-02T06:00:00Z,26.5545,-82.1715,1.8,23.0,2 
SCCF RECON,ioos:station:SCCF:51:1,2011-03-02T07:00:00Z,26.5545,-82.1715,1.8,22.88,2 
SCCF RECON,ioos:station:SCCF:51:1,2011-03-02T08:00:00Z,26.5545,-82.1715,1.8,23.11,2 
SCCF RECON,ioos:station:SCCF:51:1,2011-03-02T09:00:00Z,26.5545,-82.1715,1.8,23.17,2 
SCCF RECON,ioos:station:SCCF:51:1,2011-03-02T10:00:00Z,26.5545,-82.1715,1.8,23.29,2 
SCCF RECON,ioos:station:SCCF:51:1,2011-03-02T11:00:00Z,26.5545,-82.1715,1.8,23.26,2 
SCCF RECON,ioos:station:SCCF:51:1,2011-03-02T12:00:00Z,26.5545,-82.1715,1.8,23.12,2 
SCCF RECON,ioos:station:SCCF:51:1,2011-03-02T13:00:00Z,26.5545,-82.1715,1.8,22.83,2 
SCCF RECON,ioos:station:SCCF:51:1,2011-03-02T14:00:00Z,26.5545,-82.1715,1.8,22.66,2 
SCCF RECON,ioos:station:SCCF:51:1,2011-03-02T15:00:00Z,26.5545,-82.1715,1.8,22.39,2 
SCCF RECON,ioos:station:SCCF:51:1,2011-03-02T16:00:00Z,26.5545,-82.1715,1.8,22.46,2 
SCCF RECON,ioos:station:SCCF:51:1,2011-03-02T17:00:00Z,26.5545,-82.1715,1.8,22.66,2 
SCCF RECON,ioos:station:SCCF:51:1,2011-03-02T18:00:00Z,26.5545,-82.1715,1.8,22.81,2 
SCCF RECON,ioos:station:SCCF:51:1,2011-03-02T19:00:00Z,26.5545,-82.1715,1.8,23.44,2 
SCCF RECON,ioos:station:SCCF:51:1,2011-03-02T20:00:00Z,26.5545,-82.1715,1.8,23.38,2 
SCCF RECON,ioos:station:SCCF:51:1,2011-03-02T21:00:00Z,26.5545,-82.1715,1.8,23.67,2 
SCCF RECON,ioos:station:SCCF:51:1,2011-03-02T22:00:00Z,26.5545,-82.1715,1.8,23.62,2 
SCCF RECON,ioos:station:SCCF:51:1,2011-03-02T23:00:00Z,26.5545,-82.1715,1.8,23.57,2 
SCCF RECON,ioos:station:SCCF:51:1,2011-03-03T00:00:00Z,26.5545,-82.1715,1.8,23.4,2 
SCCF RECON,ioos:station:SCCF:51:1,2011-03-03T01:00:00Z,26.5545,-82.1715,1.8,23.06,2 
SCCF RECON,ioos:station:SCCF:51:1,2011-03-03T02:00:00Z,26.5545,-82.1715,1.8,23.0,2 
SCCF RECON,ioos:station:SCCF:51:1,2011-03-03T03:00:00Z,26.5545,-82.1715,1.8,22.81,2 
SCCF RECON,ioos:station:SCCF:51:1,2011-03-03T04:00:00Z,26.5545,-82.1715,1.8,22.57,2 
SCCF RECON,ioos:station:SCCF:51:1,2011-03-03T05:00:00Z,26.5545,-82.1715,1.8,22.32,2 
SCCF RECON,ioos:station:SCCF:51:1,2011-03-03T06:00:00Z,26.5545,-82.1715,1.8,22.38,2 
SCCF RECON,ioos:station:SCCF:51:1,2011-03-03T07:00:00Z,26.5545,-82.1715,1.8,22.49,2 
SCCF RECON,ioos:station:SCCF:51:1,2011-03-03T08:00:00Z,26.5545,-82.1715,1.8,22.26,2 
SCCF RECON,ioos:station:SCCF:51:1,2011-03-03T09:00:00Z,26.5545,-82.1715,1.8,22.4,2 
SCCF RECON,ioos:station:SCCF:51:1,2011-03-03T10:00:00Z,26.5545,-82.1715,1.8,22.47,2 
SCCF RECON,ioos:station:SCCF:51:1,2011-03-03T11:00:00Z,26.5545,-82.1715,1.8,22.4,2 
SCCF RECON,ioos:station:SCCF:51:1,2011-03-03T12:00:00Z,26.5545,-82.1715,1.8,22.3,2 
SCCF RECON,ioos:station:SCCF:51:1,2011-03-03T13:00:00Z,26.5545,-82.1715,1.8,22.04,2 
SCCF RECON,ioos:station:SCCF:51:1,2011-03-03T14:00:00Z,26.5545,-82.1715,1.8,21.57,2 
SCCF RECON,ioos:station:SCCF:51:1,2011-03-03T15:00:00Z,26.5545,-82.1715,1.8,21.46,2 
SCCF RECON,ioos:station:SCCF:51:1,2011-03-03T16:00:00Z,26.5545,-82.1715,1.8,21.27,2 
SCCF RECON,ioos:station:SCCF:51:1,2011-03-03T17:00:00Z,26.5545,-82.1715,1.8,21.49,2 
SCCF RECON,ioos:station:SCCF:51:1,2011-03-03T18:00:00Z,26.5545,-82.1715,1.8,21.75,2 
SCCF RECON,ioos:station:SCCF:51:1,2011-03-03T19:00:00Z,26.5545,-82.1715,1.8,21.82,2 
SCCF RECON,ioos:station:SCCF:51:1,2011-03-03T20:00:00Z,26.5545,-82.1715,1.8,22.26,2 
SCCF RECON,ioos:station:SCCF:51:1,2011-03-03T21:00:00Z,26.5545,-82.1715,1.8,22.37,2 
SCCF RECON,ioos:station:SCCF:51:1,2011-03-03T22:00:00Z,26.5545,-82.1715,1.8,22.16,2 
SCCF RECON,ioos:station:SCCF:51:1,2011-03-03T23:00:00Z,26.5545,-82.1715,1.8,22.12,2 
SCCF RECON,ioos:station:SCCF:51:1,2011-03-04T00:00:00Z,26.5545,-82.1715,1.8,22.05,2 
SCCF RECON,ioos:station:SCCF:51:1,2011-03-04T01:00:00Z,26.5545,-82.1715,1.8,21.99,2 
SCCF RECON,ioos:station:SCCF:51:1,2011-03-04T02:00:00Z,26.5545,-82.1715,1.8,22.12,2 
SCCF RECON,ioos:station:SCCF:51:1,2011-03-04T03:00:00Z,26.5545,-82.1715,1.8,21.62,2 
SCCF RECON,ioos:station:SCCF:51:1,2011-03-04T04:00:00Z,26.5545,-82.1715,1.8,21.06,2 
SCCF RECON,ioos:station:SCCF:51:1,2011-03-04T05:00:00Z,26.5545,-82.1715,1.8,21.23,2 
SCCF RECON,ioos:station:SCCF:51:1,2011-03-04T06:00:00Z,26.5545,-82.1715,1.8,21.74,2 
SCCF RECON,ioos:station:SCCF:51:1,2011-03-04T07:00:00Z,26.5545,-82.1715,1.8,21.68,2 
SCCF RECON,ioos:station:SCCF:51:1,2011-03-04T08:00:00Z,26.5545,-82.1715,1.8,21.59,2 
SCCF RECON,ioos:station:SCCF:51:1,2011-03-04T09:00:00Z,26.5545,-82.1715,1.8,21.43,2 
SCCF RECON,ioos:station:SCCF:51:1,2011-03-04T10:00:00Z,26.5545,-82.1715,1.8,21.28,2 
SCCF RECON,ioos:station:SCCF:51:1,2011-03-04T11:00:00Z,26.5545,-82.1715,1.8,21.16,2 
SCCF RECON,ioos:station:SCCF:51:1,2011-03-04T12:00:00Z,26.5545,-82.1715,1.8,20.95,2 
SCCF RECON,ioos:station:SCCF:51:1,2011-03-04T13:00:00Z,26.5545,-82.1715,1.8,20.93,2 
SCCF RECON,ioos:station:SCCF:51:1,2011-03-04T14:00:00Z,26.5545,-82.1715,1.8,21.05,2 
SCCF RECON,ioos:station:SCCF:51:1,2011-03-04T15:00:00Z,26.5545,-82.1715,1.8,21.11,2 
SCCF RECON,ioos:station:SCCF:51:1,2011-03-04T16:00:00Z,26.5545,-82.1715,1.8,20.65,2 
SCCF RECON,ioos:station:SCCF:51:1,2011-03-04T17:00:00Z,26.5545,-82.1715,1.8,21.05,2 
SCCF RECON,ioos:station:SCCF:51:1,2011-03-04T18:00:00Z,26.5545,-82.1715,1.8,20.74,2 
SCCF RECON,ioos:station:SCCF:51:1,2011-03-04T19:00:00Z,26.5545,-82.1715,1.8,21.15,2 
SCCF RECON,ioos:station:SCCF:51:1,2011-03-04T20:00:00Z,26.5545,-82.1715,1.8,21.55,2 
SCCF RECON,ioos:station:SCCF:51:1,2011-03-04T21:00:00Z,26.5545,-82.1715,1.8,21.98,2 
SCCF RECON,ioos:station:SCCF:51:1,2011-03-04T22:00:00Z,26.5545,-82.1715,1.8,21.81,2 
SCCF RECON,ioos:station:SCCF:51:1,2011-03-04T23:00:00Z,26.5545,-82.1715,1.8,21.69,2 
SCCF RECON,ioos:station:SCCF:51:1,2011-03-05T00:00:00Z,26.5545,-82.1715,1.8,21.66,2 
SCCF RECON,ioos:station:SCCF:51:1,2011-03-05T01:00:00Z,26.5545,-82.1715,1.8,21.62,2 
SCCF RECON,ioos:station:SCCF:51:1,2011-03-05T02:00:00Z,26.5545,-82.1715,1.8,21.71,2 
SCCF RECON,ioos:station:SCCF:51:1,2011-03-05T03:00:00Z,26.5545,-82.1715,1.8,21.14,2 
SCCF RECON,ioos:station:SCCF:51:1,2011-03-05T04:00:00Z,26.5545,-82.1715,1.8,20.46,2 
SCCF RECON,ioos:station:SCCF:51:1,2011-03-05T05:00:00Z,26.5545,-82.1715,1.8,20.41,2 
SCCF RECON,ioos:station:SCCF:51:1,2011-03-05T06:00:00Z,26.5545,-82.1715,1.8,20.58,2 
SCCF RECON,ioos:station:SCCF:51:1,2011-03-05T07:00:00Z,26.5545,-82.1715,1.8,20.72,2 
SCCF RECON,ioos:station:SCCF:51:1,2011-03-05T08:00:00Z,26.5545,-82.1715,1.8,21.26,2 
SCCF RECON,ioos:station:SCCF:51:1,2011-03-05T09:00:00Z,26.5545,-82.1715,1.8,21.16,2 
SCCF RECON,ioos:station:SCCF:51:1,2011-03-05T10:00:00Z,26.5545,-82.1715,1.8,20.99,2 
SCCF RECON,ioos:station:SCCF:51:1,2011-03-05T11:00:00Z,26.5545,-82.1715,1.8,20.84,2 
SCCF RECON,ioos:station:SCCF:51:1,2011-03-05T12:00:00Z,26.5545,-82.1715,1.8,20.94,2 
SCCF RECON,ioos:station:SCCF:51:1,2011-03-05T13:00:00Z,26.5545,-82.1715,1.8,20.85,2 
SCCF RECON,ioos:station:SCCF:51:1,2011-03-05T14:00:00Z,26.5545,-82.1715,1.8,20.77,2 
SCCF RECON,ioos:station:SCCF:51:1,2011-03-05T15:00:00Z,26.5545,-82.1715,1.8,20.94,2 
SCCF RECON,ioos:station:SCCF:51:1,2011-03-05T16:00:00Z,26.5545,-82.1715,1.8,20.64,2 
SCCF RECON,ioos:station:SCCF:51:1,2011-03-05T17:00:00Z,26.5545,-82.1715,1.8,20.88,2 
SCCF RECON,ioos:station:SCCF:51:1,2011-03-05T18:00:00Z,26.5545,-82.1715,1.8,21.08,2 
SCCF RECON,ioos:station:SCCF:51:1,2011-03-05T19:00:00Z,26.5545,-82.1715,1.8,21.47,2 
SCCF RECON,ioos:station:SCCF:51:1,2011-03-05T20:00:00Z,26.5545,-82.1715,1.8,21.46,2 
SCCF RECON,ioos:station:SCCF:51:1,2011-03-05T21:00:00Z,26.5545,-82.1715,1.8,21.69,2 
SCCF RECON,ioos:station:SCCF:51:1,2011-03-05T22:00:00Z,26.5545,-82.1715,1.8,21.92,2 
SCCF RECON,ioos:station:SCCF:51:1,2011-03-05T23:00:00Z,26.5545,-82.1715,1.8,21.97,2 
SCCF RECON,ioos:station:SCCF:51:1,2011-03-06T00:00:00Z,26.5545,-82.1715,1.8,22.15,2 
SCCF RECON,ioos:station:SCCF:51:1,2011-03-06T01:00:00Z,26.5545,-82.1715,1.8,22.13,2 
SCCF RECON,ioos:station:SCCF:51:1,2011-03-06T02:00:00Z,26.5545,-82.1715,1.8,21.87,2 
SCCF RECON,ioos:station:SCCF:51:1,2011-03-06T03:00:00Z,26.5545,-82.1715,1.8,21.82,2 
SCCF RECON,ioos:station:SCCF:51:1,2011-03-06T04:00:00Z,26.5545,-82.1715,1.8,21.39,2 
SCCF RECON,ioos:station:SCCF:51:1,2011-03-06T05:00:00Z,26.5545,-82.1715,1.8,21.3,2 
SCCF RECON,ioos:station:SCCF:51:1,2011-03-06T06:00:00Z,26.5545,-82.1715,1.8,21.37,2 
SCCF RECON,ioos:station:SCCF:51:1,2011-03-06T07:00:00Z,26.5545,-82.1715,1.8,21.3,2 
SCCF RECON,ioos:station:SCCF:51:1,2011-03-06T08:00:00Z,26.5545,-82.1715,1.8,21.54,2 
SCCF RECON,ioos:station:SCCF:51:1,2011-03-06T09:00:00Z,26.5545,-82.1715,1.8,21.52,2 
SCCF RECON,ioos:station:SCCF:51:1,2011-03-06T10:00:00Z,26.5545,-82.1715,1.8,21.72,2 
SCCF RECON,ioos:station:SCCF:51:1,2011-03-06T11:00:00Z,26.5545,-82.1715,1.8,21.87,2 
SCCF RECON,ioos:station:SCCF:51:1,2011-03-06T12:00:00Z,26.5545,-82.1715,1.8,21.96,2 
SCCF RECON,ioos:station:SCCF:51:1,2011-03-06T13:00:00Z,26.5545,-82.1715,1.8,21.92,2 
SCCF RECON,ioos:station:SCCF:51:1,2011-03-06T14:00:00Z,26.5545,-82.1715,1.8,21.85,2 
SCCF RECON,ioos:station:SCCF:51:1,2011-03-06T15:00:00Z,26.5545,-82.1715,1.8,21.72,2 
SCCF RECON,ioos:station:SCCF:51:1,2011-03-06T16:00:00Z,26.5545,-82.1715,1.8,21.55,2 
SCCF RECON,ioos:station:SCCF:51:1,2011-03-06T17:00:00Z,26.5545,-82.1715,1.8,21.59,2 
SCCF RECON,ioos:station:SCCF:51:1,2011-03-06T18:00:00Z,26.5545,-82.1715,1.8,21.7,2 
SCCF RECON,ioos:station:SCCF:51:1,2011-03-06T19:00:00Z,26.5545,-82.1715,1.8,21.83,2 
SCCF RECON,ioos:station:SCCF:51:1,2011-03-06T20:00:00Z,26.5545,-82.1715,1.8,21.89,2 
SCCF RECON,ioos:station:SCCF:51:1,2011-03-06T21:00:00Z,26.5545,-82.1715,1.8,22.1,2 
SCCF RECON,ioos:station:SCCF:51:1,2011-03-06T22:00:00Z,26.5545,-82.1715,1.8,22.32,2 
SCCF RECON,ioos:station:SCCF:51:1,2011-03-06T23:00:00Z,26.5545,-82.1715,1.8,22.39,2 
SCCF RECON,ioos:station:SCCF:51:1,2011-03-07T00:00:00Z,26.5545,-82.1715,1.8,22.3,2 
SCCF RECON,ioos:station:SCCF:51:1,2011-03-07T01:00:00Z,26.5545,-82.1715,1.8,22.14,2 
SCCF RECON,ioos:station:SCCF:51:1,2011-03-07T02:00:00Z,26.5545,-82.1715,1.8,22.06,2 
SCCF RECON,ioos:station:SCCF:51:1,2011-03-07T03:00:00Z,26.5545,-82.1715,1.8,22.0,2 
SCCF RECON,ioos:station:SCCF:51:1,2011-03-07T04:00:00Z,26.5545,-82.1715,1.8,21.74,2 
SCCF RECON,ioos:station:SCCF:51:1,2011-03-07T05:00:00Z,26.5545,-82.1715,1.8,21.34,2 
SCCF RECON,ioos:station:SCCF:51:1,2011-03-07T06:00:00Z,26.5545,-82.1715,1.8,21.12,2 
SCCF RECON,ioos:station:SCCF:51:1,2011-03-07T07:00:00Z,26.5545,-82.1715,1.8,21.18,2 
SCCF RECON,ioos:station:SCCF:51:1,2011-03-07T08:00:00Z,26.5545,-82.1715,1.8,21.09,2 
SCCF RECON,ioos:station:SCCF:51:1,2011-03-07T09:00:00Z,26.5545,-82.1715,1.8,21.06,2 
SCCF RECON,ioos:station:SCCF:51:1,2011-03-07T10:00:00Z,26.5545,-82.1715,1.8,21.02,2 
SCCF RECON,ioos:station:SCCF:51:1,2011-03-07T11:00:00Z,26.5545,-82.1715,1.8,21.09,2 
SCCF RECON,ioos:station:SCCF:51:1,2011-03-07T12:00:00Z,26.5545,-82.1715,1.8,21.01,2 
SCCF RECON,ioos:station:SCCF:51:1,2011-03-07T13:00:00Z,26.5545,-82.1715,1.8,20.93,2 
SCCF RECON,ioos:station:SCCF:51:1,2011-03-07T14:00:00Z,26.5545,-82.1715,1.8,20.93,2 
SCCF RECON,ioos:station:SCCF:51:1,2011-03-07T15:00:00Z,26.5545,-82.1715,1.8,20.88,2 
SCCF RECON,ioos:station:SCCF:51:1,2011-03-07T16:00:00Z,26.5545,-82.1715,1.8,20.78,2 
SCCF RECON,ioos:station:SCCF:51:1,2011-03-07T17:00:00Z,26.5545,-82.1715,1.8,21.12,2 
SCCF RECON,ioos:station:SCCF:51:1,2011-03-07T18:00:00Z,26.5545,-82.1715,1.8,21.12,2 
SCCF RECON,ioos:station:SCCF:51:1,2011-03-07T19:00:00Z,26.5545,-82.1715,1.8,21.25,2 
SCCF RECON,ioos:station:SCCF:51:1,2011-03-07T20:00:00Z,26.5545,-82.1715,1.8,21.57,2 
SCCF RECON,ioos:station:SCCF:51:1,2011-03-07T21:00:00Z,26.5545,-82.1715,1.8,21.62,2 
SCCF RECON,ioos:station:SCCF:51:1,2011-03-07T22:00:00Z,26.5545,-82.1715,1.8,21.76,2 
SCCF RECON,ioos:station:SCCF:51:1,2011-03-07T23:00:00Z,26.5545,-82.1715,1.8,21.81,2 
SCCF RECON,ioos:station:SCCF:51:1,2011-03-08T00:00:00Z,26.5545,-82.1715,1.8,21.69,2 
SCCF RECON,ioos:station:SCCF:51:1,2011-03-08T01:00:00Z,26.5545,-82.1715,1.8,21.63,2 
SCCF RECON,ioos:station:SCCF:51:1,2011-03-08T02:00:00Z,26.5545,-82.1715,1.8,21.51,2 
SCCF RECON,ioos:station:SCCF:51:1,2011-03-08T03:00:00Z,26.5545,-82.1715,1.8,21.38,2 
SCCF RECON,ioos:station:SCCF:51:1,2011-03-08T04:00:00Z,26.5545,-82.1715,1.8,21.21,2 
SCCF RECON,ioos:station:SCCF:51:1,2011-03-08T05:00:00Z,26.5545,-82.1715,1.8,20.98,2 
SCCF RECON,ioos:station:SCCF:51:1,2011-03-08T06:00:00Z,26.5545,-82.1715,1.8,20.9,2 
SCCF RECON,ioos:station:SCCF:51:1,2011-03-08T07:00:00Z,26.5545,-82.1715,1.8,20.85,2 
SCCF RECON,ioos:station:SCCF:51:1,2011-03-08T08:00:00Z,26.5545,-82.1715,1.8,20.77,2 
SCCF RECON,ioos:station:SCCF:51:1,2011-03-08T09:00:00Z,26.5545,-82.1715,1.8,20.6,2 
SCCF RECON,ioos:station:SCCF:51:1,2011-03-08T10:00:00Z,26.5545,-82.1715,1.8,20.54,2 
SCCF RECON,ioos:station:SCCF:51:1,2011-03-08T11:00:00Z,26.5545,-82.1715,1.8,20.6,2 
SCCF RECON,ioos:station:SCCF:51:1,2011-03-08T12:00:00Z,26.5545,-82.1715,1.8,20.53,2 
SCCF RECON,ioos:station:SCCF:51:1,2011-03-08T13:00:00Z,26.5545,-82.1715,1.8,20.5,2 
SCCF RECON,ioos:station:SCCF:51:1,2011-03-08T14:00:00Z,26.5545,-82.1715,1.8,20.66,2 
SCCF RECON,ioos:station:SCCF:51:1,2011-03-08T15:00:00Z,26.5545,-82.1715,1.8,20.63,2 
SCCF RECON,ioos:station:SCCF:51:1,2011-03-08T16:00:00Z,26.5545,-82.1715,1.8,20.71,2 
SCCF RECON,ioos:station:SCCF:51:1,2011-03-08T17:00:00Z,26.5545,-82.1715,1.8,20.8,2 
SCCF RECON,ioos:station:SCCF:51:1,2011-03-08T18:00:00Z,26.5545,-82.1715,1.8,21.13,2 
SCCF RECON,ioos:station:SCCF:51:1,2011-03-08T19:00:00Z,26.5545,-82.1715,1.8,21.21,2 
SCCF RECON,ioos:station:SCCF:51:1,2011-03-08T20:00:00Z,26.5545,-82.1715,1.8,21.68,2 
SCCF RECON,ioos:station:SCCF:51:1,2011-03-08T21:00:00Z,26.5545,-82.1715,1.8,21.58,2 
SCCF RECON,ioos:station:SCCF:51:1,2011-03-08T22:00:00Z,26.5545,-82.1715,1.8,21.55,2 
SCCF RECON,ioos:station:SCCF:51:1,2011-03-08T23:00:00Z,26.5545,-82.1715,1.8,21.42,2 
SCCF RECON,ioos:station:SCCF:51:1,2011-03-09T00:00:00Z,26.5545,-82.1715,1.8,21.47,2 
SCCF RECON,ioos:station:SCCF:51:1,2011-03-09T01:00:00Z,26.5545,-82.1715,1.8,21.65,2 
SCCF RECON,ioos:station:SCCF:51:1,2011-03-09T02:00:00Z,26.5545,-82.1715,1.8,21.62,2 
SCCF RECON,ioos:station:SCCF:51:1,2011-03-09T03:00:00Z,26.5545,-82.1715,1.8,21.68,2 
SCCF RECON,ioos:station:SCCF:51:1,2011-03-09T04:00:00Z,26.5545,-82.1715,1.8,21.54,2 
SCCF RECON,ioos:station:SCCF:51:1,2011-03-09T05:00:00Z,26.5545,-82.1715,1.8,21.45,2 
SCCF RECON,ioos:station:SCCF:51:1,2011-03-09T06:00:00Z,26.5545,-82.1715,1.8,21.47,2 
SCCF RECON,ioos:station:SCCF:51:1,2011-03-09T07:00:00Z,26.5545,-82.1715,1.8,21.69,2 
SCCF RECON,ioos:station:SCCF:51:1,2011-03-09T08:00:00Z,26.5545,-82.1715,1.8,21.4,2 
SCCF RECON,ioos:station:SCCF:51:1,2011-03-09T09:00:00Z,26.5545,-82.1715,1.8,21.39,2 
SCCF RECON,ioos:station:SCCF:51:1,2011-03-09T10:00:00Z,26.5545,-82.1715,1.8,21.37,2 
SCCF RECON,ioos:station:SCCF:51:1,2011-03-09T11:00:00Z,26.5545,-82.1715,1.8,21.54,2 
SCCF RECON,ioos:station:SCCF:51:1,2011-03-09T12:00:00Z,26.5545,-82.1715,1.8,21.45,2 
SCCF RECON,ioos:station:SCCF:51:1,2011-03-09T13:00:00Z,26.5545,-82.1715,1.8,21.42,2 
SCCF RECON,ioos:station:SCCF:51:1,2011-03-09T14:00:00Z,26.5545,-82.1715,1.8,21.46,2 
SCCF RECON,ioos:station:SCCF:51:1,2011-03-09T15:00:00Z,26.5545,-82.1715,1.8,21.65,2 
SCCF RECON,ioos:station:SCCF:51:1,2011-03-09T16:00:00Z,26.5545,-82.1715,1.8,21.65,2 
SCCF RECON,ioos:station:SCCF:51:1,2011-03-09T17:00:00Z,26.5545,-82.1715,1.8,22.29,2 
SCCF RECON,ioos:station:SCCF:51:1,2011-03-09T18:00:00Z,26.5545,-82.1715,1.8,22.26,2 
SCCF RECON,ioos:station:SCCF:51:1,2011-03-09T19:00:00Z,26.5545,-82.1715,1.8,22.54,2 
SCCF RECON,ioos:station:SCCF:51:1,2011-03-09T20:00:00Z,26.5545,-82.1715,1.8,22.32,2 
SCCF RECON,ioos:station:SCCF:51:1,2011-03-09T21:00:00Z,26.5545,-82.1715,1.8,22.73,2 
SCCF RECON,ioos:station:SCCF:51:1,2011-03-09T22:00:00Z,26.5545,-82.1715,1.8,22.93,2 
SCCF RECON,ioos:station:SCCF:51:1,2011-03-09T23:00:00Z,26.5545,-82.1715,1.8,22.69,2 
SCCF RECON,ioos:station:SCCF:51:1,2011-03-10T00:00:00Z,26.5545,-82.1715,1.8,22.96,2 
SCCF RECON,ioos:station:SCCF:51:1,2011-03-10T01:00:00Z,26.5545,-82.1715,1.8,22.97,2 
SCCF RECON,ioos:station:SCCF:51:1,2011-03-10T02:00:00Z,26.5545,-82.1715,1.8,22.97,2 
SCCF RECON,ioos:station:SCCF:51:1,2011-03-10T03:00:00Z,26.5545,-82.1715,1.8,22.91,2 
SCCF RECON,ioos:station:SCCF:51:1,2011-03-10T04:00:00Z,26.5545,-82.1715,1.8,22.64,2 
SCCF RECON,ioos:station:SCCF:51:1,2011-03-10T05:00:00Z,26.5545,-82.1715,1.8,22.56,2 
SCCF RECON,ioos:station:SCCF:51:1,2011-03-10T06:00:00Z,26.5545,-82.1715,1.8,22.47,2 
SCCF RECON,ioos:station:SCCF:51:1,2011-03-10T07:00:00Z,26.5545,-82.1715,1.8,22.53,2 
SCCF RECON,ioos:station:SCCF:51:1,2011-03-10T08:00:00Z,26.5545,-82.1715,1.8,22.48,2 
SCCF RECON,ioos:station:SCCF:51:1,2011-03-10T09:00:00Z,26.5545,-82.1715,1.8,22.54,2 
SCCF RECON,ioos:station:SCCF:51:1,2011-03-10T10:00:00Z,26.5545,-82.1715,1.8,22.54,2 
SCCF RECON,ioos:station:SCCF:51:1,2011-03-10T11:00:00Z,26.5545,-82.1715,1.8,22.43,2 
SCCF RECON,ioos:station:SCCF:51:1,2011-03-10T12:00:00Z,26.5545,-82.1715,1.8,22.3,2 
SCCF RECON,ioos:station:SCCF:51:1,2011-03-10T13:00:00Z,26.5545,-82.1715,1.8,22.1,2 
SCCF RECON,ioos:station:SCCF:51:1,2011-03-10T14:00:00Z,26.5545,-82.1715,1.8,22.0,2 
SCCF RECON,ioos:station:SCCF:51:1,2011-03-10T15:00:00Z,26.5545,-82.1715,1.8,21.99,2 
SCCF RECON,ioos:station:SCCF:51:1,2011-03-10T16:00:00Z,26.5545,-82.1715,1.8,21.94,2 
SCCF RECON,ioos:station:SCCF:51:1,2011-03-10T17:00:00Z,26.5545,-82.1715,1.8,21.9,2 
SCCF RECON,ioos:station:SCCF:51:1,2011-03-10T18:00:00Z,26.5545,-82.1715,1.8,21.88,2 
SCCF RECON,ioos:station:SCCF:51:1,2011-03-10T19:00:00Z,26.5545,-82.1715,1.8,21.81,2 
SCCF RECON,ioos:station:SCCF:51:1,2011-03-10T20:00:00Z,26.5545,-82.1715,1.8,21.83,2 
SCCF RECON,ioos:station:SCCF:51:1,2011-03-10T21:00:00Z,26.5545,-82.1715,1.8,21.85,2 
SCCF RECON,ioos:station:SCCF:51:1,2011-03-10T22:00:00Z,26.5545,-82.1715,1.8,21.82,2 
SCCF RECON,ioos:station:SCCF:51:1,2011-03-10T23:00:00Z,26.5545,-82.1715,1.8,21.88,2 
SCCF RECON,ioos:station:SCCF:51:1,2011-03-11T00:00:00Z,26.5545,-82.1715,1.8,21.82,2 
SCCF RECON,ioos:station:SCCF:51:1,2011-03-11T01:00:00Z,26.5545,-82.1715,1.8,21.52,2 
SCCF RECON,ioos:station:SCCF:51:1,2011-03-11T02:00:00Z,26.5545,-82.1715,1.8,21.46,2 
SCCF RECON,ioos:station:SCCF:51:1,2011-03-11T03:00:00Z,26.5545,-82.1715,1.8,21.17,2 
SCCF RECON,ioos:station:SCCF:51:1,2011-03-11T04:00:00Z,26.5545,-82.1715,1.8,21.09,2 
SCCF RECON,ioos:station:SCCF:51:1,2011-03-11T05:00:00Z,26.5545,-82.1715,1.8,20.95,2 
SCCF RECON,ioos:station:SCCF:51:1,2011-03-11T06:00:00Z,26.5545,-82.1715,1.8,20.71,2 
SCCF RECON,ioos:station:SCCF:51:1,2011-03-11T07:00:00Z,26.5545,-82.1715,1.8,20.51,2 
SCCF RECON,ioos:station:SCCF:51:1,2011-03-11T08:00:00Z,26.5545,-82.1715,1.8,20.25,2 
SCCF RECON,ioos:station:SCCF:51:1,2011-03-11T09:00:00Z,26.5545,-82.1715,1.8,20.14,2 
SCCF RECON,ioos:station:SCCF:51:1,2011-03-11T10:00:00Z,26.5545,-82.1715,1.8,19.98,2 
SCCF RECON,ioos:station:SCCF:51:1,2011-03-11T11:00:00Z,26.5545,-82.1715,1.8,19.89,2 
SCCF RECON,ioos:station:SCCF:51:1,2011-03-11T12:00:00Z,26.5545,-82.1715,1.8,19.77,2 
SCCF RECON,ioos:station:SCCF:51:1,2011-03-11T13:00:00Z,26.5545,-82.1715,1.8,19.64,2 
SCCF RECON,ioos:station:SCCF:51:1,2011-03-11T14:00:00Z,26.5545,-82.1715,1.8,19.62,2 
SCCF RECON,ioos:station:SCCF:51:1,2011-03-11T15:00:00Z,26.5545,-82.1715,1.8,19.68,2 
SCCF RECON,ioos:station:SCCF:51:1,2011-03-11T16:00:00Z,26.5545,-82.1715,1.8,19.74,2 
SCCF RECON,ioos:station:SCCF:51:1,2011-03-11T17:00:00Z,26.5545,-82.1715,1.8,19.77,2 
SCCF RECON,ioos:station:SCCF:51:1,2011-03-11T18:00:00Z,26.5545,-82.1715,1.8,19.83,2 
SCCF RECON,ioos:station:SCCF:51:1,2011-03-11T19:00:00Z,26.5545,-82.1715,1.8,19.77,2 
SCCF RECON,ioos:station:SCCF:51:1,2011-03-11T20:00:00Z,26.5545,-82.1715,1.8,20.28,2 
SCCF RECON,ioos:station:SCCF:51:1,2011-03-11T21:00:00Z,26.5545,-82.1715,1.8,20.24,2 
SCCF RECON,ioos:station:SCCF:51:1,2011-03-11T22:00:00Z,26.5545,-82.1715,1.8,19.86,2 
SCCF RECON,ioos:station:SCCF:51:1,2011-03-11T23:00:00Z,26.5545,-82.1715,1.8,20.17,2 
SCCF RECON,ioos:station:SCCF:51:1,2011-03-12T00:00:00Z,26.5545,-82.1715,1.8,19.93,2 
SCCF RECON,ioos:station:SCCF:51:1,2011-03-12T01:00:00Z,26.5545,-82.1715,1.8,19.72,2 
SCCF RECON,ioos:station:SCCF:51:1,2011-03-12T02:00:00Z,26.5545,-82.1715,1.8,19.48,2 
SCCF RECON,ioos:station:SCCF:51:1,2011-03-12T03:00:00Z,26.5545,-82.1715,1.8,19.48,2 
SCCF RECON,ioos:station:SCCF:51:1,2011-03-12T04:00:00Z,26.5545,-82.1715,1.8,19.4,2 
SCCF RECON,ioos:station:SCCF:51:1,2011-03-12T05:00:00Z,26.5545,-82.1715,1.8,19.32,2 
SCCF RECON,ioos:station:SCCF:51:1,2011-03-12T06:00:00Z,26.5545,-82.1715,1.8,19.07,2 
SCCF RECON,ioos:station:SCCF:51:1,2011-03-12T07:00:00Z,26.5545,-82.1715,1.8,18.86,2 
SCCF RECON,ioos:station:SCCF:51:1,2011-03-12T08:00:00Z,26.5545,-82.1715,1.8,18.69,2 
SCCF RECON,ioos:station:SCCF:51:1,2011-03-12T09:00:00Z,26.5545,-82.1715,1.8,18.55,2 
SCCF RECON,ioos:station:SCCF:51:1,2011-03-12T10:00:00Z,26.5545,-82.1715,1.8,18.1,2 
SCCF RECON,ioos:station:SCCF:51:1,2011-03-12T11:00:00Z,26.5545,-82.1715,1.8,18.19,2 
SCCF RECON,ioos:station:SCCF:51:1,2011-03-12T12:00:00Z,26.5545,-82.1715,1.8,18.26,2 
SCCF RECON,ioos:station:SCCF:51:1,2011-03-12T13:00:00Z,26.5545,-82.1715,1.8,18.04,2 
SCCF RECON,ioos:station:SCCF:51:1,2011-03-12T14:00:00Z,26.5545,-82.1715,1.8,18.04,2 
SCCF RECON,ioos:station:SCCF:51:1,2011-03-12T15:00:00Z,26.5545,-82.1715,1.8,18.45,2 
SCCF RECON,ioos:station:SCCF:51:1,2011-03-12T16:00:00Z,26.5545,-82.1715,1.8,18.45,2 